Location: Champs
(48.8539°N, 2.6040°E)
Time: 06:16:25
(UTC+00:00)

Meteor 1-16 Rocket - Pass Details

Date: 26 October 2021
Orbit: 789 x 908 km, 81.2° (Epoch: 04 December)

Event Time Altitude Azimuth Distance (km) Brightness Sun altitude
Rises 04:21:51 0° 345° (NNW) 3,377 7.2 -21.2°
Reaches altitude 10° 04:24:18 10° 341° (NNW) 2,423 6.4 -20.7°
Maximum altitude 04:29:38 58° 264° (W) 939 4.1 -19.9°
Drops below altitude 10° 04:34:50 10° 187° (S) 2,356 6.4 -19.0°
Sets 04:37:12 0° 183° (S) 3,276 7.2 -18.6°
